DAL468 KATL-KLGA

Flight info

Callsign DAL468
Flight time N/A
Altitude 37000
Route JACCC2 KELLN BYJAC Q60 HURTS PROUD2
Aircraft A321/M-SDE3FGHIRWY/LB1

Departure

Time 2026-05-07 00:38
Airport Hartsfield Jackson Atlanta International Airport (KATL)

Arrival

Time N/A
Airport LaGuardia Airport (KLGA)
Time Latitude Longitude Altitude Speed Heading
2026-05-07 00:08 33.64189 -84.43323 1010 ft 0 kts 90°
2026-05-07 00:27 33.64189 -84.43339 1011 ft 2 kts 90°
2026-05-07 00:27 33.64189 -84.43356 1011 ft 2 kts 90°
2026-05-07 00:27 33.64192 -84.43374 1011 ft 2 kts 123°
2026-05-07 00:27 33.64202 -84.43387 1011 ft 2 kts 148°
2026-05-07 00:28 33.64216 -84.43393 1011 ft 1 kts 174°
2026-05-07 00:28 33.64219 -84.43394 1011 ft 1 kts 180°
2026-05-07 00:28 33.64218 -84.43394 1011 ft 0 kts 180°
2026-05-07 00:28 33.64221 -84.43393 1011 ft 0 kts 182°
2026-05-07 00:30 33.64220 -84.43393 1011 ft 0 kts 182°
2026-05-07 00:30 33.64212 -84.43394 1011 ft 3 kts 182°
2026-05-07 00:30 33.64174 -84.43394 1011 ft 7 kts 179°
2026-05-07 00:31 33.64105 -84.43393 1011 ft 12 kts 180°
2026-05-07 00:31 33.64014 -84.43393 1011 ft 13 kts 181°
2026-05-07 00:31 33.63916 -84.43392 1011 ft 14 kts 181°
2026-05-07 00:31 33.63813 -84.43392 1011 ft 15 kts 180°
2026-05-07 00:32 33.63760 -84.43392 1011 ft 6 kts 181°
2026-05-07 00:32 33.63709 -84.43387 1011 ft 9 kts 153°
2026-05-07 00:32 33.63662 -84.43323 1010 ft 12 kts 96°
2026-05-07 00:32 33.63662 -84.43216 1008 ft 13 kts 86°
2026-05-07 00:33 33.63665 -84.43098 1007 ft 14 kts 91°
2026-05-07 00:33 33.63664 -84.42969 1006 ft 15 kts 91°
2026-05-07 00:33 33.63663 -84.42831 1003 ft 17 kts 91°
2026-05-07 00:33 33.63655 -84.42685 1001 ft 16 kts 92°
2026-05-07 00:34 33.63654 -84.42536 996 ft 19 kts 91°
2026-05-07 00:34 33.63654 -84.42371 992 ft 19 kts 89°
2026-05-07 00:34 33.63656 -84.42193 986 ft 22 kts 92°
2026-05-07 00:34 33.63654 -84.41998 980 ft 23 kts 89°
2026-05-07 00:35 33.63654 -84.41820 973 ft 18 kts 91°
2026-05-07 00:35 33.63653 -84.41760 972 ft 1 kts 91°
2026-05-07 00:35 33.63653 -84.41730 971 ft 6 kts 90°
2026-05-07 00:35 33.63653 -84.41657 970 ft 12 kts 89°
2026-05-07 00:36 33.63653 -84.41509 966 ft 20 kts 91°
2026-05-07 00:36 33.63652 -84.41328 963 ft 23 kts 91°
2026-05-07 00:36 33.63652 -84.41133 960 ft 22 kts 87°
2026-05-07 00:36 33.63651 -84.40967 957 ft 18 kts 99°
2026-05-07 00:37 33.63592 -84.40907 956 ft 11 kts 180°
2026-05-07 00:37 33.63504 -84.40915 956 ft 13 kts 204°
2026-05-07 00:37 33.63472 -84.41034 958 ft 34 kts 269°
2026-05-07 00:37 33.63469 -84.41694 972 ft 121 kts 270°
2026-05-07 00:38 33.63470 -84.42951 1153 ft 172 kts 269°
2026-05-07 00:38 33.63479 -84.44447 1848 ft 187 kts 269°
2026-05-07 00:38 33.63508 -84.45997 2820 ft 191 kts 268°
2026-05-07 00:38 33.63426 -84.47523 3603 ft 186 kts 250°
2026-05-07 00:39 33.62866 -84.48962 4003 ft 201 kts 240°
2026-05-07 00:39 33.62149 -84.50513 4311 ft 224 kts 240°
2026-05-07 00:39 33.61384 -84.52221 4776 ft 241 kts 242°
2026-05-07 00:39 33.60615 -84.54022 5470 ft 246 kts 243°
2026-05-07 00:40 33.59852 -84.55833 6273 ft 247 kts 242°
2026-05-07 00:40 33.58757 -84.57416 7047 ft 251 kts 220°
2026-05-07 00:40 33.57166 -84.58275 7753 ft 262 kts 197°
2026-05-07 00:40 33.55315 -84.58399 8446 ft 271 kts 187°
2026-05-07 00:41 33.53402 -84.58401 9147 ft 274 kts 187°
2026-05-07 00:41 33.51496 -84.58399 9818 ft 277 kts 187°
2026-05-07 00:41 33.49558 -84.58314 10432 ft 288 kts 178°
2026-05-07 00:41 33.47609 -84.57359 10732 ft 322 kts 151°
2026-05-07 00:42 33.46086 -84.55275 11022 ft 353 kts 122°
2026-05-07 00:42 33.45438 -84.52359 11426 ft 372 kts 96°
2026-05-07 00:42 33.45412 -84.49251 12006 ft 377 kts 89°
2026-05-07 00:42 33.45515 -84.46114 12630 ft 380 kts 90°
2026-05-07 00:43 33.45588 -84.42974 13272 ft 381 kts 91°
2026-05-07 00:43 33.45609 -84.39799 13740 ft 385 kts 92°
2026-05-07 00:43 33.45604 -84.36575 14120 ft 391 kts 90°
2026-05-07 00:43 33.45936 -84.33370 14661 ft 395 kts 76°
2026-05-07 00:44 33.46894 -84.30312 15252 ft 394 kts 62°
2026-05-07 00:44 33.48167 -84.27403 15843 ft 395 kts 58°
2026-05-07 00:44 33.49503 -84.24536 16353 ft 399 kts 58°
2026-05-07 00:44 33.50858 -84.21624 16836 ft 403 kts 58°
2026-05-07 00:45 33.52214 -84.18664 17344 ft 407 kts 58°
2026-05-07 00:45 33.53565 -84.15685 17835 ft 410 kts 58°
2026-05-07 00:45 33.54922 -84.12659 18375 ft 412 kts 58°
2026-05-07 00:45 33.56267 -84.09647 18832 ft 416 kts 58°
2026-05-07 00:46 33.57638 -84.06566 19250 ft 420 kts 58°
2026-05-07 00:46 33.59021 -84.03462 19697 ft 424 kts 58°
2026-05-07 00:46 33.60403 -84.00356 20095 ft 428 kts 58°
2026-05-07 00:46 33.61818 -83.97172 20524 ft 432 kts 58°
2026-05-07 00:47 33.63213 -83.94026 20961 ft 435 kts 58°
2026-05-07 00:47 33.64640 -83.90800 21410 ft 437 kts 58°
2026-05-07 00:47 33.66066 -83.87585 21833 ft 440 kts 58°
2026-05-07 00:47 33.67506 -83.84341 22226 ft 444 kts 58°
2026-05-07 00:48 33.68966 -83.81031 22639 ft 447 kts 57°
2026-05-07 00:48 33.70416 -83.77745 23089 ft 449 kts 58°
2026-05-07 00:48 33.71884 -83.74430 23502 ft 452 kts 57°
2026-05-07 00:48 33.73359 -83.71075 23914 ft 455 kts 57°
2026-05-07 00:49 33.74832 -83.67727 24340 ft 458 kts 57°
2026-05-07 00:49 33.76384 -83.64371 24750 ft 458 kts 53°
2026-05-07 00:49 33.78057 -83.61144 25192 ft 458 kts 52°
2026-05-07 00:49 33.79771 -83.57954 25601 ft 460 kts 51°
2026-05-07 00:50 33.81531 -83.54700 26012 ft 462 kts 50°
2026-05-07 00:50 33.83278 -83.51459 26374 ft 465 kts 51°
2026-05-07 00:50 33.85040 -83.48181 26764 ft 468 kts 51°
2026-05-07 00:50 33.86787 -83.44924 27146 ft 470 kts 51°
2026-05-07 00:51 33.88570 -83.41593 27502 ft 472 kts 51°
2026-05-07 00:51 33.90345 -83.38268 27847 ft 475 kts 51°
2026-05-07 00:51 33.92121 -83.34933 28229 ft 476 kts 52°
2026-05-07 00:51 33.93911 -83.31557 28563 ft 478 kts 51°
2026-05-07 00:52 33.95703 -83.28172 28867 ft 481 kts 51°
2026-05-07 00:52 33.97491 -83.24795 29172 ft 483 kts 52°
2026-05-07 00:52 33.99312 -83.21368 29459 ft 485 kts 52°
2026-05-07 00:52 34.01125 -83.17956 29674 ft 490 kts 52°
2026-05-07 00:53 34.02967 -83.14481 29960 ft 492 kts 51°
2026-05-07 00:53 34.04800 -83.11021 30233 ft 494 kts 52°
2026-05-07 00:53 34.06644 -83.07535 30513 ft 496 kts 52°
2026-05-07 00:53 34.08502 -83.04022 30796 ft 498 kts 52°
2026-05-07 00:54 34.10364 -83.00496 31036 ft 501 kts 52°
2026-05-07 00:54 34.12251 -82.96942 31252 ft 504 kts 52°
2026-05-07 00:54 34.14140 -82.93364 31511 ft 506 kts 52°
2026-05-07 00:54 34.16003 -82.89821 31796 ft 507 kts 53°
2026-05-07 00:55 34.17885 -82.86216 32150 ft 506 kts 52°
2026-05-07 00:55 34.19755 -82.82629 32553 ft 505 kts 52°
2026-05-07 00:55 34.21612 -82.79060 32876 ft 505 kts 52°
2026-05-07 00:55 34.23474 -82.75496 33142 ft 506 kts 53°
2026-05-07 00:56 34.25343 -82.71903 33434 ft 506 kts 52°
2026-05-07 00:56 34.27222 -82.68282 33879 ft 504 kts 52°
2026-05-07 00:56 34.29069 -82.64719 34155 ft 505 kts 51°
2026-05-07 00:56 34.30928 -82.61128 34463 ft 505 kts 52°
2026-05-07 00:57 34.32780 -82.57554 34856 ft 503 kts 51°
2026-05-07 00:57 34.34629 -82.53973 35215 ft 502 kts 52°
2026-05-07 00:57 34.36470 -82.50415 35479 ft 502 kts 51°
2026-05-07 00:57 34.38325 -82.46835 35641 ft 505 kts 51°
2026-05-07 00:58 34.40198 -82.43203 35791 ft 508 kts 51°
2026-05-07 00:58 34.42058 -82.39592 36069 ft 507 kts 51°
2026-05-07 00:58 34.43921 -82.35971 36292 ft 508 kts 52°
2026-05-07 00:58 34.45713 -82.32255 36441 ft 513 kts 54°
2026-05-07 00:59 34.49162 -82.24653 36668 ft 517 kts 56°
2026-05-07 00:59 34.50930 -82.20845 36810 ft 515 kts 52°
2026-05-07 01:00 34.54942 -82.13808 36918 ft 507 kts 43°
2026-05-07 01:00 34.59515 -82.07404 36936 ft 501 kts 40°
2026-05-07 01:01 34.64158 -82.01115 36932 ft 501 kts 39°
2026-05-07 01:01 34.68765 -81.94807 36928 ft 499 kts 40°
2026-05-07 01:02 34.73349 -81.88500 36907 ft 501 kts 40°
2026-05-07 01:02 34.77959 -81.82127 36918 ft 504 kts 40°
2026-05-07 01:03 34.82555 -81.75748 36924 ft 504 kts 40°
2026-05-07 01:03 34.87145 -81.69371 36902 ft 502 kts 40°
2026-05-07 01:04 34.91733 -81.62999 36911 ft 504 kts 39°
2026-05-07 01:04 34.96352 -81.56570 36905 ft 509 kts 40°
2026-05-07 01:05 35.00988 -81.50082 36894 ft 505 kts 40°
2026-05-07 01:05 35.05579 -81.43657 36906 ft 506 kts 39°
2026-05-07 01:06 35.10215 -81.37174 36905 ft 511 kts 39°
2026-05-07 01:06 35.14892 -81.30620 36906 ft 511 kts 40°
2026-05-07 01:07 35.19524 -81.24090 36920 ft 510 kts 39°
2026-05-07 01:07 35.24162 -81.17560 36930 ft 513 kts 39°
2026-05-07 01:08 35.28838 -81.10957 36912 ft 514 kts 40°
2026-05-07 01:08 35.33527 -81.04333 36927 ft 519 kts 39°
2026-05-07 01:09 35.38245 -80.97629 36923 ft 517 kts 39°
2026-05-07 01:09 35.42922 -80.90976 36927 ft 516 kts 40°
2026-05-07 01:10 35.47587 -80.84345 36926 ft 516 kts 39°
2026-05-07 01:10 35.52284 -80.77670 36926 ft 519 kts 40°
2026-05-07 01:11 35.56986 -80.70936 36931 ft 521 kts 40°
2026-05-07 01:11 35.61665 -80.64228 36931 ft 521 kts 39°
2026-05-07 01:12 35.66340 -80.57527 36915 ft 516 kts 40°
2026-05-07 01:12 35.71014 -80.50818 36921 ft 517 kts 40°
2026-05-07 01:13 35.75699 -80.44070 36919 ft 517 kts 38°
2026-05-07 01:13 35.80362 -80.37358 36913 ft 519 kts 39°
2026-05-07 01:14 35.85033 -80.30586 36918 ft 521 kts 40°
2026-05-07 01:14 35.89696 -80.23789 36915 ft 519 kts 39°
2026-05-07 01:15 35.94351 -80.16993 36907 ft 519 kts 41°
2026-05-07 01:15 35.98607 -80.09703 36914 ft 533 kts 47°
2026-05-07 01:16 36.02573 -80.02036 36911 ft 529 kts 49°
2026-05-07 01:16 36.06531 -79.94410 36923 ft 529 kts 48°
2026-05-07 01:17 36.10616 -79.86818 36925 ft 530 kts 46°
2026-05-07 01:17 36.14838 -79.79429 36922 ft 527 kts 45°
2026-05-07 01:18 36.19073 -79.72046 36912 ft 530 kts 44°
2026-05-07 01:18 36.23302 -79.64601 36907 ft 529 kts 45°
2026-05-07 01:19 36.27518 -79.57150 36909 ft 528 kts 45°
2026-05-07 01:19 36.31706 -79.49720 36900 ft 527 kts 46°
2026-05-07 01:20 36.35887 -79.42289 36899 ft 528 kts 45°
2026-05-07 01:20 36.40124 -79.34753 36897 ft 530 kts 45°
2026-05-07 01:21 36.44296 -79.27272 36892 ft 528 kts 45°
2026-05-07 01:21 36.48489 -79.19770 36897 ft 531 kts 46°
2026-05-07 01:22 36.52669 -79.12275 36894 ft 530 kts 45°
2026-05-07 01:22 36.56845 -79.04781 36885 ft 530 kts 46°
2026-05-07 01:23 36.61024 -78.97218 36884 ft 530 kts 45°
2026-05-07 01:23 36.65161 -78.89695 36884 ft 529 kts 46°
2026-05-07 01:24 36.69314 -78.82131 36894 ft 535 kts 46°
2026-05-07 01:24 36.73152 -78.74124 36899 ft 542 kts 52°
2026-05-07 01:25 36.76622 -78.65804 36905 ft 542 kts 54°
2026-05-07 01:25 36.80040 -78.57530 36902 ft 539 kts 54°
2026-05-07 01:26 36.83526 -78.49176 36907 ft 543 kts 53°
2026-05-07 01:26 36.86987 -78.40863 36907 ft 541 kts 54°
2026-05-07 01:27 36.90430 -78.32575 36895 ft 538 kts 53°
2026-05-07 01:27 36.93869 -78.24268 36900 ft 539 kts 54°
2026-05-07 01:28 36.97302 -78.15973 36897 ft 539 kts 54°
2026-05-07 01:28 37.00724 -78.07662 36896 ft 539 kts 54°
2026-05-07 01:29 37.04123 -77.99364 36899 ft 538 kts 53°
2026-05-07 01:29 37.07539 -77.91052 36896 ft 538 kts 53°
2026-05-07 01:30 37.10957 -77.82718 36892 ft 539 kts 54°
2026-05-07 01:30 37.14397 -77.74349 36893 ft 539 kts 54°
2026-05-07 01:31 37.17788 -77.66048 36892 ft 538 kts 54°
2026-05-07 01:31 37.21181 -77.57691 36893 ft 538 kts 54°
2026-05-07 01:32 37.24562 -77.49339 36895 ft 536 kts 54°
2026-05-07 01:32 37.27918 -77.41036 36891 ft 535 kts 53°
2026-05-07 01:33 37.31278 -77.32710 36884 ft 539 kts 55°
2026-05-07 01:33 37.34615 -77.24352 36886 ft 536 kts 55°
2026-05-07 01:34 37.37959 -77.15990 36887 ft 536 kts 54°
2026-05-07 01:34 37.41283 -77.07669 36885 ft 534 kts 54°
2026-05-07 01:35 37.45034 -76.99800 36884 ft 516 kts 41°
2026-05-07 01:35 37.47353 -76.96419 36888 ft 505 kts 33°
2026-05-07 01:35 37.49904 -76.93503 36887 ft 491 kts 25°
2026-05-07 01:35 37.52632 -76.91045 36888 ft 476 kts 17°
2026-05-07 01:36 37.55476 -76.89011 36896 ft 468 kts 13°
2026-05-07 01:36 37.61286 -76.85284 36897 ft 470 kts 12°
2026-05-07 01:37 37.67086 -76.81504 36896 ft 470 kts 12°
2026-05-07 01:37 37.72878 -76.77664 36891 ft 472 kts 13°
2026-05-07 01:38 37.78651 -76.73807 36894 ft 471 kts 13°
2026-05-07 01:38 37.84454 -76.69927 36890 ft 473 kts 13°
2026-05-07 01:39 37.90295 -76.66072 36886 ft 470 kts 12°
2026-05-07 01:39 37.96120 -76.62412 36879 ft 472 kts 11°
2026-05-07 01:39 37.99025 -76.60399 36886 ft 483 kts 17°
2026-05-07 01:40 38.01878 -76.58067 36877 ft 486 kts 19°
2026-05-07 01:40 38.07472 -76.53257 36880 ft 484 kts 20°
2026-05-07 01:41 38.13074 -76.48476 36874 ft 485 kts 19°
2026-05-07 01:41 38.18662 -76.43750 36877 ft 483 kts 19°
2026-05-07 01:42 38.24273 -76.39009 36875 ft 485 kts 19°
2026-05-07 01:42 38.29920 -76.34221 36696 ft 487 kts 20°
2026-05-07 01:42 38.32735 -76.31820 36423 ft 490 kts 20°
2026-05-07 01:43 38.35551 -76.29407 36141 ft 487 kts 21°
2026-05-07 01:43 38.38361 -76.27008 35865 ft 490 kts 21°
2026-05-07 01:43 38.41177 -76.24601 35592 ft 489 kts 21°
2026-05-07 01:43 38.44001 -76.22196 35317 ft 492 kts 21°
2026-05-07 01:44 38.46832 -76.19776 34961 ft 488 kts 21°